{"data":{"norad_id":52380,"intl_designator":"2022-045BB","name":"STARLINK-3793","alt_names":[],"object_type":"PAYLOAD","status":"ACTIVE","operator":null,"country":"US","launch_date":"2022-04-29","launch_site_code":"AFETR","launch_vehicle":null,"mission":null,"orbit_class":"UNKNOWN","rcs_meters":null,"size_class":null,"mass_kg":null,"dimensions":null,"purposes":["comms"],"wikipedia_slug":null,"has_3d_model":false,"image_url":null,"decayed_at":null,"tle_current":{"epoch":"2026-09-19T23:01:29.161056Z","epoch_age_seconds":106377,"freshness":"FRESH","line1":"1 52380U 22045BB  26262.95936529 -.00002728  00000+0 -69716-4 0  9990","line2":"2 52380  53.1617  11.8945 0000871  91.4160 268.6942 15.34362957245595","mean_motion":15.34362957,"eccentricity":8.71e-5,"inclination_deg":53.1617,"raan_deg":11.8945,"arg_perigee_deg":91.416,"mean_anomaly_deg":268.6942,"bstar":-6.9716e-5,"rev_number":24559,"period_min":93.850023778956,"perigee_km":462.21749524981,"apogee_km":463.40918879939,"semimajor_km":6840.9503420246,"source":"CELESTRAK","updated_at":"2026-09-20T09:00:40.030786Z"}}}